www.pogodaiklimat.ru

Погода и климат >> Архив погоды >> Россия >> Краснодарский край >> Горный


ПОГОДА в Горном

  • Прогноз погоды в Горном
  • Монитор погоды в Горном
  • Климат города

АРХИВ ПОГОДЫ в Горном

Время (UTC), дата Ветер
(напр.,м/с)
 
Видим.   Явления Облачность Т
(С)
Тd
(С)
f
(%)
Тe
(С)
Тes
(С)
Комфортность P
(гПа)
Po
(гПа)
Тmin
(С)
Tmax
(С)
R
(мм)
R24
(мм)
S
(см)
09 11.08 СВ 7-13
{15}
50 км ясно +24.1 +10.1 41 +25 +30 комфорт 1016.4 979.6
12 11.08 СВ 7-13
{17}
50 км 1/1 600 м
[Sc]
+25.3 +10.4 39 +26 +29 жарко 1014.5 978.0
15 11.08 СВ 6-12
{14}
50 км ясно +23.9 +10.2 42 +25 +26 комфорт 1014.1 977.4 +25.7
18 11.08 СВ 5-11
{12}
50 км ясно +20.2 +9.9 52 +22 +22 комфорт 1015.2 978.0
21 11.08 С 3
{12}
50 км ясно +16.6 +10.4 67 +16 +16 1014.8 977.2
00 12.08 С 2 50 км ясно +14.1 +10.3 78 +14 +14 1014.1 976.2
03 12.08 СВ 2 50 км 1/1 600 м
[Sc]
+11.7 +10.2 91 +11 +11 1014.2 976.0 +11.4
06 12.08 С 2 50 км 3/1 600 м
[Cu med, cong Ci]
+18.6 +11.7 64 +20 +27 1013.1 975.8
09 12.08 СВ 2 50 км 3/3 600 м
[Cu hum]
+23.4 +13.0 52 +26 +38 жарко 1012.6 975.9
12 12.08 С 3 50 км 5/5 600 м
[Cu med, cong]
+27.0 +12.7 41 +29 +33 жарко 1011.7 975.6
15 12.08 С 2 50 км 5/5 600 м
[Sc diur, vesp]
+23.7 +13.1 51 +26 +26 жарко 1012.7 976.1 +27.3
18 12.08 штиль 0 50 км 3/3 600 м
[Sc diur, vesp]
+17.8 +13.4 75 +18 +18 1014.8 977.4
21 12.08 С 1 50 км ясно +14.9 +12.9 88 +15 +15 1015.3 977.5
00 13.08 СВ 1 50 км ясно +13.3 +12.0 92 +13 +13 1015.6 977.6
03 13.08 С 2 20 км местами туман поземный ясно +12.7 +11.4 92 +12 +12 1015.7 977.6 +12.5
06 13.08 СВ 2 50 км ясно +22.8 +12.1 51 +25 +33 комфорт 1014.4 977.6
09 13.08 СВ 4 50 км 1/1 600 м
[Sc]
+25.7 +8.6 34 +26 +36 жарко 1013.9 977.4
12 13.08 В 4 50 км 1/1 600 м
[Sc]
+27.5 +9.4 32 +28 +34 жарко 1012.8 976.6
15 13.08 СВ 4
{10}
50 км 1/1 600 м
[Sc]
+26.0 +8.1 32 +26 +27 жарко 1012.6 976.2 +27.8
18 13.08 штиль 0 50 км ясно +19.1 +11.1 60 +20 +20 1014.2 976.9
21 13.08 штиль 0 50 км ясно +14.0 +11.5 85 +14 +14 1014.5 976.6
00 14.08 С 1 50 км ясно +12.4 +10.7 89 +12 +12 1014.6 976.5
03 14.08 СВ 1 50 км ясно +11.7 +10.4 92 +11 +12 1014.8 976.6 +11.2
06 14.08 С 3 50 км ясно +24.1 +12.2 47 +26 +33 жарко 1013.3 976.7
09 14.08 В 6-12
{12}
50 км ясно +29.4 +8.5 27 +29 +35 жарко 1011.9 976.0
12 14.08 СВ 6-11
{14}
50 км 1/1 600 м
[Sc diur, vesp]
+30.5 +8.3 25 +30 +34 жарко 1010.9 975.1
15 14.08 СВ 4
{11}
50 км ясно +28.8 +9.8 31 +29 +30 жарко 1010.7 974.7 +30.8
18 14.08 СВ 3 50 км ясно +24.3 +10.6 42 +25 +25 комфорт 1012.0 975.4
21 14.08 штиль 0
{10}
50 км ясно +22.7 +10.0 44 +24 +24 комфорт 1011.9 975.2
00 15.08 В 1 50 км ясно +16.3 +12.1 76 +17 +17 1013.0 975.4
03 15.08 С 2 50 км ясно +12.7 +10.7 88 +12 +12 1013.9 975.8 +12.6
06 15.08 В 1 50 км ясно +23.5 +13.8 54 +26 +35 жарко 1011.7 975.1
09 15.08 СВ 2 50 км ясно +29.8 +11.3 32 +30 +46 жарко 1010.7 974.9
12 15.08 СВ 6-11
{14}
50 км 1/1 1000 м
[Cu hum]
+32.2 +10.3 26 +32 +36 жарко 1009.3 973.7
15 15.08 СВ 5
{13}
50 км ясно +30.7 +8.5 25 +30 +30 жарко 1009.2 973.5 +32.7
18 15.08 В 3
{11}
50 км ясно +25.9 +7.7 31 +26 +26 жарко 1010.5 974.1
21 15.08 С 3 50 км ясно +19.6 +10.6 56 +21 +21 комфорт 1010.8 973.7
00 16.08 С 1 50 км ясно +14.7 +11.5 81 +15 +15 1011.4 973.7
03 16.08 С 2 50 км ясно +13.6 +11.8 89 +13 +13 1011.9 974.0 +12.7
06 16.08 В 2 50 км ясно +24.8 +13.2 48 +27 +35 жарко 1010.1 973.7
09 16.08 СВ 2 50 км 1/1 600 м
[Sc diur, vesp]
+30.0 +13.6 37 +32 +46 жарко 1008.8 973.1
12 16.08 С 2 50 км 3/1 600 м
[Cu hum Cc]
+31.4 +12.9 32 +32 +41 жарко 1008.0 972.5
15 16.08 С 1 50 км 6/0
[Cc]
+30.8 +13.0 34 +32 +33 жарко 1007.7 972.1 +32.3
18 16.08 ЮЗ 4 50 км 1/0
[Ci fib]
+23.4 +17.1 68 +29 +29 душно 1009.2 972.7
21 16.08 штиль 0 50 км 3/0
[Ac lent]
+19.0 +16.4 85 +20 +20 1010.0 973.0
00 17.08 штиль 0 н/о н/о +17.3 +15.6 90 +17 +17 1010.2 972.9
03 17.08 штиль 0 50 км 1/0
[Ac cast]
+16.2 +14.8 91 +16 +16 1011.1 973.6 +16.0
06 17.08 В 1 50 км 1/0
[Ac cast]
+25.9 +17.3 59 +30 +38 душно 1009.6 973.4
09 17.08 СВ 2 50 км 3/3 600 м
[Cu med, cong]
+31.0 +16.0 40 +34 +45 душно 1008.3 972.7
12 17.08 СВ 5 50 км 3/3 600 м
[Cu med, cong]
+31.7 +14.8 36 +34 +38 душно 1007.6 972.0
15 17.08 СВ 3 50 км 1/1 600 м
[Cu med, cong]
+30.7 +14.3 37 +33 +33 душно 1006.7 971.1 +32.0
18 17.08 СВ 2 50 км 1/1 600 м
[Sc diur, vesp]
+25.9 +15.0 51 +29 +29 душно 1008.0 971.8
21 17.08 З 2 50 км 4/4 600 м
[Sc]
+22.1 +17.4 75 +27 +27 душно 1008.5 971.9
00 18.08 штиль 0 50 км 10/1 600 м
[Sc Cs]
+19.1 +16.4 84 +21 +21 комфорт 1008.7 971.7
03 18.08 С 2 50 км 4/0
[Ac cast]
+17.1 +15.3 89 +17 +17 1009.1 971.8 +17.0

 

Местоположение метеостанции Горный (Краснодарский край, Россия): широта 44.28 долгота 39.27 высота над уровнем моря 323 м.

В архиве по умолчанию представлена погода в Горном за последнюю неделю. Архивные данные за месяц целиком и за предыдущие месяцы, начиная с января 2011 года, Вы можете получить, выбрав интересующий диапазон дат из раскрывающегося списка и нажав кнопку "Ввод!".


*Определитесь, кто Вы:
робот инопланетянин человек

Внимание! Время в таблицах - всемирное. Для получения местного времени необходимо прибавить поправку, которая в Горном равна 3 ч.

Смотрите также архив погоды в соседних городах и на ближайших метеорологических станциях:

Погода в Туапсе (Краснодарский край, Россия) (26 км)
Погода в Магри (Краснодарский край, Россия) (30 км)
Погода в Горячем Ключе (Краснодарский край, Россия) (41 км)
Погода в Лазаревском (Краснодарский край, Россия) (43 км)
Погода в Джубге (Краснодарский край, Россия) (44 км)
Погода в Кичмае (Краснодарский край, Россия) (54 км)
Погода в Солох Ауле (Краснодарский край, Россия) (61 км)
Погода в Шунтуке (Адыгея, Россия) (71 км)
Погода в Белореченске (Краснодарский край, Россия) (72 км)
Погода в Майкопе (Адыгея, Россия) (75 км)

Пояснения к столбцам:

Ветер - указаны скорость ветра в м/с - средняя за 10 мин, порывы в срок и между сроками (в фигурных скобках) и направление, откуда дует ветер: С - северный, СВ - северо-восточный, В - восточный, ЮВ - юго-восточный, Ю - южный, ЮЗ - юго-западный, З - западный, СЗ - северо-западный.
Видимость - горизонтальная дальность видимости в метрах или километрах. При видимости от 1 до 10 км при отсутствии осадков обычно наблюдается дымка, при ухудшении видимости до 1 км и менее - туман. В сухую погоду видимость может ухудшаться дымом, пылью или мглою.
Явления - указаны атмосферные явления, наблюдавшиеся в срок или в последний час перед сроком; фигурными скобками обозначены явления, наблюдавшиеся между сроками (за 1-3 часа до срока); квадратными скобками обозначены град или гололедные отложения с указанием их диаметра в мм.
Облачность - указаны через наклонную черту общая и нижняя облачность в баллах и высота нижней границы облаков в метрах; квадратными скобками обозначены формы облаков: Ci - перистые, Cs - перисто-слоистые, Cc - перисто-кучевые, Ac - высококучевые, As - высокослоистые, Sc - слоисто-кучевые, Ns - слоисто-дождевые, Cu - кучевые, Cb - кучево-дождевые. Подробнее классификацию облаков см. в Атласе облаков (PDF).
T - Температура воздуха - температура, измеренная на высоте 2 м над землей.
Td - Температура точки росы - температура, при понижении до которой содержащийся в воздухе водяной пар достигнет насыщения.
f - Относительная влажность воздуха - влажноcть воздуха, измеренная на высоте 2 м над землей.
Te - Эффективная температура - температура, которую ощущает одетый по сезону человек в тени. Характеристика душности погоды. При расчете учитывается влияние влажности воздуха и скорости ветра на теплоощущения человека.
Tes - Эффективная температура на солнце - температура, которую ощущает человек, с поправкой на солнечный нагрев. Характеристика знойности погоды. Зависит от высоты солнца над горизонтом, облачности и скорости ветра. Ночью, в пасмурную погоду, а также при ветре 12 м/с и более поправка равна нулю.
P - Атмосферное давление - приведенное к уровню моря атмосферное давление.
Po - Атмосферное давление - измеренное на уровне метеостанции атмосферное давление.
Tmin - Минимальная температура - минимум температуры воздуха на высоте 2 м над землей.
Tmax - Максимальная температура - максимум температуры воздуха на высоте 2 м над землей.
R - Количество осадков - Количество выпавших осадков за период времени, мм. При наведении курсора мыши на число - период времени, за который выпало указанное количество осадков.
R24 - Количество осадков - Количество выпавших осадков за 24 часа, мм.
S - Снежный покров - Высота снежного покрова, см. При наведении курсора мыши на число - состояние снежного покрова и степень покрытия местности в баллах.